[[{"header":{"parameterUnit":"m.s-1","parameterCategory":1,"la1":30.2991,"la2":30.254,"lo1":-89.0895,"lo2":-89.0444,"dy":0.0017,"dx":0.0017,"nx":28,"ny":28,"refTime":"2023-03-18T21:00:00:Z","depth":0,"parameterNumber":2,"parameterNumberName":"U-component_of_WINDS"},"data":[0,0,0,0,0,0,0,0,0,0,0,0,0,0,0,0,0,0,0,0,0,0,0,0,0,0,0,0,0,0,0,0,0,0,0,0,0,0,0,0,0,0,0,0,0,0,0,0,0,0,0,0,0,0,0,0,0,0,-1.1532,-1.1532,0,-1.1554,-1.1554,-1.1554,-1.1524,-1.1523,-1.1522,-1.1521,-1.1545,-1.1547,-1.1548,0,0,0,0,0,0,0,0,0,0,0,0,0,-1.1463,-1.1464,-1.1532,-1.1532,-1.1532,-1.1554,-1.1554,-1.1554,-1.1524,-1.1523,-1.1522,-1.1521,-1.1545,-1.1547,-1.1548,0,0,0,0,0,0,0,0,0,0,0,0,0,-1.149,-1.1465,-1.1532,-1.152,-1.1519,-1.1554,-1.1554,-1.1555,-1.1525,-1.1523,-1.1521,-1.152,-1.1544,-1.1546,-1.1549,-1.1597,0,0,-1.1556,-1.1557,0,0,0,0,0,0,0,0,-1.1488,-1.1492,-1.1521,-1.1521,-1.152,-1.1535,-1.1539,-1.1569,-1.1525,-1.1523,-1.1521,-1.1519,-1.1543,-1.1545,-1.1553,-1.1598,-1.1599,-1.1557,-1.1558,-1.1559,-1.156,0,0,0,0,0,0,0,-1.1486,-1.1491,-1.154,-1.1522,-1.1521,-1.1513,-1.1515,-1.1544,-1.1542,-1.1523,-1.1521,-1.1523,-1.1542,-1.1551,-1.1554,-1.1599,-1.1556,-1.1559,-1.156,-1.1561,-1.1683,-1.1685,0,0,0,0,0,0,-1.1486,-1.149,-1.154,-1.1541,-1.15,-1.1516,-1.1518,-1.1531,-1.1541,-1.1541,-1.1525,-1.1522,-1.1547,-1.1551,-1.1554,-1.1611,-1.1559,-1.1561,-1.1563,-1.1681,-1.1683,-1.1685,0,0,0,0,0,0,-1.1485,-1.1491,-1.1539,-1.1515,-1.152,-1.1519,-1.1534,-1.1533,-1.1541,-1.1543,-1.1542,-1.1534,-1.1546,-1.1551,-1.1586,-1.1611,-1.1563,-1.1565,-1.1679,-1.1682,-1.1684,-1.1725,0,0,0,0,0,0,-1.1483,-1.149,-1.1509,-1.1516,-1.1522,-1.157,-1.1536,-1.1534,-1.1546,-1.1542,-1.1552,-1.1552,-1.1545,-1.1583,-1.1589,-1.1614,-1.1567,-1.1677,-1.168,-1.1684,-1.1721,-1.1728,-1.1735,0,0,0,0,0,-1.148,-1.152,-1.151,-1.1516,-1.1545,-1.1572,-1.1576,-1.1567,-1.1548,-1.1566,-1.1567,-1.1551,-1.1607,-1.1586,-1.1593,-1.1619,-1.1675,-1.168,-1.1683,-1.1718,-1.1727,-1.1734,0,0,0,0,0,0,-1.1517,-1.152,-1.151,-1.1552,-1.1562,-1.1567,-1.159,-1.1577,-1.1593,-1.1589,-1.1578,-1.1581,-1.1618,-1.1622,-1.1599,-1.1666,-1.1638,-1.1644,-1.1662,-1.1671,-1.1677,-1.1676,-1.1569,0,0,0,0,0,-1.1529,-1.1551,-1.1553,-1.159,-1.1596,-1.1592,-1.1604,-1.1596,-1.1606,-1.161,-1.1614,-1.1624,-1.1644,-1.1657,-1.1675,-1.1721,-1.1722,-1.1742,-1.1749,-1.1754,-1.176,-1.1783,-1.1792,-1.1698,-1.1698,-1.1698,0,0,-1.1557,-1.1561,-1.1576,-1.1598,-1.1605,-1.1627,-1.1596,-1.1621,-1.1638,-1.1614,-1.1648,-1.165,-1.1661,-1.1701,-1.1719,-1.1706,-1.1785,-1.1759,-1.1764,-1.1766,-1.1788,-1.1797,-1.1805,-1.1701,-1.1701,-1.17,0,0,-1.1618,-1.1623,-1.1655,-1.1662,-1.1672,-1.1669,-1.1676,-1.1683,-1.1683,-1.1717,-1.1699,-1.1718,-1.1753,-1.1761,-1.177,-1.1832,-1.1818,-1.1838,-1.1874,-1.1897,-1.1905,-1.1911,-1.1934,-1.1942,-1.1843,-1.1843,-1.1843,0,-1.1651,-1.1684,-1.1673,-1.1699,-1.171,-1.1688,-1.1719,-1.1727,-1.1743,-1.175,-1.1734,-1.1776,-1.1782,-1.1824,-1.1839,-1.1846,-1.1854,-1.1838,-1.1904,-1.1911,-1.1917,-1.1938,-1.1947,-1.1845,-1.1845,-1.1845,-1.1845,0,-1.1724,-1.1747,-1.1771,-1.1786,-1.1799,-1.1828,-1.1821,-1.1835,-1.1826,-1.1824,-1.1858,-1.1864,-1.1883,-1.1891,-1.1883,-1.1932,-1.1923,-1.1906,-1.1878,-1.1928,-1.1948,-1.1956,-1.1849,-1.1848,-1.1847,-1.1847,0,0,-1.1811,-1.1818,-1.1827,-1.1833,-1.1842,-1.186,-1.1887,-1.1905,-1.1917,-1.1928,-1.1951,-1.198,-1.1963,-1.1973,-1.1965,-1.1986,-1.2035,-1.1966,-1.1966,-1.1979,-1.2089,-1.2103,-1.2112,-1.2025,-1.2026,-1.2027,-1.2088,0,-1.1872,-1.192,-1.191,-1.1957,-1.1978,-1.1956,-1.198,-1.1988,-1.1987,-1.2004,-1.2003,-1.2024,-1.2,-1.2006,-1.2025,-1.2025,-1.2057,-1.202,-1.2047,-1.2048,-1.2046,-1.2123,-1.2138,-1.2195,-1.2096,-1.2097,-1.2098,0,-1.1951,-1.1964,-1.2013,-1.2017,-1.2026,-1.2047,-1.2062,-1.2079,-1.2087,-1.2085,-1.2095,-1.2083,-1.211,-1.208,-1.2118,-1.2093,-1.2103,-1.2104,-1.2106,-1.2109,-1.2077,-1.2129,-1.2213,-1.2222,-1.211,-1.2109,-1.2108,0,-1.201,-1.204,-1.2073,-1.2079,-1.2084,-1.21,-1.2103,-1.2109,-1.212,-1.2133,-1.214,-1.2156,-1.2165,-1.2177,-1.217,-1.2149,-1.2208,-1.2178,-1.2207,-1.2208,-1.2222,-1.2222,-1.231,-1.2227,-1.2227,-1.2227,-1.2226,0,-1.2081,-1.2112,-1.21,-1.212,-1.2154,-1.2141,-1.2175,-1.2175,-1.2181,-1.2201,-1.2182,-1.2202,-1.219,-1.2208,-1.2202,-1.2233,-1.2237,-1.2236,-1.2235,-1.2239,-1.2239,-1.2246,-1.2243,-1.2229,-1.2228,-1.2228,-1.2227,0,-1.2154,-1.2147,-1.2181,-1.2183,-1.2184,-1.2209,-1.221,-1.2229,-1.2225,-1.2251,-1.2256,-1.2251,-1.2271,-1.2264,-1.2286,-1.2282,-1.2322,-1.2315,-1.232,-1.2318,-1.2348,-1.2346,-1.2445,-1.2458,-1.2366,-1.2366,-1.2367,0,-1.22,-1.2223,-1.2227,-1.2239,-1.2243,-1.2262,-1.2273,-1.2261,-1.2273,-1.2282,-1.23,-1.2318,-1.2333,-1.2366,-1.2364,-1.2381,-1.2374,-1.2407,-1.2377,-1.238,-1.2375,-1.2375,-1.2377,-1.2414,-1.2416,-1.2416,-1.2417,0,-1.2283,-1.2278,-1.2294,-1.2308,-1.2321,-1.2332,-1.2342,-1.2352,-1.2341,-1.2355,-1.2375,-1.2386,-1.2407,-1.2426,-1.244,-1.2443,-1.2429,-1.2426,-1.2434,-1.244,-1.2442,-1.2442,-1.2338,-1.2425,-1.2424,-1.2423,-1.2423,-1.2423,-1.2344,-1.2364,-1.2369,-1.2387,-1.2393,-1.2401,-1.2419,-1.2417,-1.2434,-1.245,-1.2441,-1.2465,-1.2471,-1.2488,-1.2493,-1.2511,-1.2498,-1.2509,-1.2512,-1.2516,-1.252,-1.2437,-1.2514,-1.2513,-1.2513,-1.2513,-1.2513,0,-1.2427,-1.2429,-1.2446,-1.2459,-1.2473,-1.2456,-1.2465,-1.2478,-1.2499,-1.2506,-1.252,-1.2542,-1.256,-1.2558,-1.2574,-1.2589,-1.2583,-1.2594,-1.2593,-1.2594,-1.253,-1.2522,-1.2599,-1.2599,-1.2599,-1.2599,-1.2599,-1.2599,-1.2472,-1.2504,-1.2499,-1.2533,-1.2534,-1.2557,-1.2563,-1.2571,-1.2576,-1.2602,-1.2617,-1.2615,-1.2619,-1.2634,-1.265,-1.2649,-1.2656,-1.267,-1.2667,-1.2607,-1.2599,-1.2591,-1.2583,-1.2671,-1.2671,-1.2729,-1.273,-1.273]},{"header":{"parameterUnit":"m.s-1","parameterCategory":1,"la1":30.2991,"la2":30.254,"lo1":-89.0895,"lo2":-89.0444,"dy":0.0017,"dx":0.0017,"nx":28,"ny":28,"refTime":"2023-03-18T21:00:00:Z","depth":0,"parameterNumber":3,"parameterNumberName":"V-component_of_WINDS"},"data":[0,0,0,0,0,0,0,0,0,0,0,0,0,0,0,0,0,0,0,0,0,0,0,0,0,0,0,0,0,0,0,0,0,0,0,0,0,0,0,0,0,0,0,0,0,0,0,0,0,0,0,0,0,0,0,0,0,0,-7.3322,-7.3323,0,-7.3397,-7.3398,-7.3399,-7.3353,-7.3351,-7.3349,-7.3347,-7.3417,-7.3421,-7.3425,0,0,0,0,0,0,0,0,0,0,0,0,0,-7.3133,-7.3137,-7.3322,-7.3323,-7.3324,-7.3397,-7.3398,-7.3399,-7.3353,-7.3351,-7.3348,-7.3346,-7.3416,-7.3421,-7.3425,0,0,0,0,0,0,0,0,0,0,0,0,0,-7.3212,-7.3138,-7.3322,-7.331,-7.331,-7.3397,-7.3398,-7.3399,-7.3354,-7.3351,-7.3347,-7.3344,-7.3414,-7.342,-7.3426,-7.3527,0,0,-7.3444,-7.3446,0,0,0,0,0,0,0,0,-7.3208,-7.3219,-7.3311,-7.3311,-7.3311,-7.3362,-7.3357,-7.3442,-7.3355,-7.3337,-7.3346,-7.3343,-7.3401,-7.3408,-7.3429,-7.353,-7.3533,-7.3444,-7.3448,-7.345,-7.3452,0,0,0,0,0,0,0,-7.3202,-7.3215,-7.3351,-7.3312,-7.3312,-7.3299,-7.3307,-7.3373,-7.3386,-7.3338,-7.3335,-7.3345,-7.3401,-7.3423,-7.343,-7.3534,-7.3444,-7.3449,-7.3453,-7.3455,-7.3722,-7.3725,0,0,0,0,0,0,-7.3198,-7.3211,-7.3349,-7.3354,-7.325,-7.3305,-7.3314,-7.3349,-7.3385,-7.3388,-7.3348,-7.3342,-7.3415,-7.3423,-7.3433,-7.3554,-7.345,-7.3456,-7.3459,-7.3718,-7.3723,-7.3727,0,0,0,0,0,0,-7.3195,-7.3211,-7.3346,-7.3282,-7.3298,-7.3312,-7.3352,-7.3352,-7.3375,-7.3393,-7.3394,-7.3369,-7.3413,-7.3424,-7.3504,-7.3555,-7.3458,-7.3464,-7.3714,-7.372,-7.3725,-7.3796,0,0,0,0,0,0,-7.3189,-7.321,-7.325,-7.3283,-7.3302,-7.3418,-7.3355,-7.3356,-7.3386,-7.338,-7.3413,-7.3415,-7.3411,-7.3496,-7.351,-7.3562,-7.3468,-7.371,-7.3717,-7.3723,-7.3789,-7.3804,-7.3816,0,0,0,0,0,-7.3183,-7.3266,-7.3252,-7.3269,-7.3352,-7.3421,-7.3432,-7.3427,-7.339,-7.343,-7.3441,-7.3414,-7.3547,-7.3504,-7.352,-7.3574,-7.3706,-7.3715,-7.3722,-7.3784,-7.3801,-7.3815,0,0,0,0,0,0,-7.3236,-7.327,-7.3255,-7.3352,-7.3385,-7.3414,-7.3463,-7.3445,-7.3487,-7.348,-7.347,-7.3478,-7.3562,-7.3575,-7.3527,-7.3674,-7.3621,-7.3632,-7.3662,-7.3678,-7.3691,-7.3686,-7.3473,0,0,0,0,0,-7.3259,-7.3315,-7.334,-7.3423,-7.344,-7.3449,-7.3479,-7.3473,-7.3506,-7.3518,-7.3535,-7.3566,-7.3615,-7.3647,-7.3693,-7.3791,-7.3797,-7.3836,-7.3849,-7.3859,-7.387,-7.3923,-7.394,-7.3753,-7.3753,-7.3753,0,0,-7.3307,-7.3333,-7.3368,-7.3434,-7.3459,-7.3515,-7.3461,-7.3522,-7.3564,-7.3527,-7.3605,-7.3618,-7.3651,-7.3741,-7.3781,-7.3755,-7.3923,-7.387,-7.3878,-7.3883,-7.3933,-7.3951,-7.3966,-7.3758,-7.3758,-7.3757,0,0,-7.3424,-7.3449,-7.3521,-7.3547,-7.3586,-7.3591,-7.3609,-7.3641,-7.3649,-7.3727,-7.3701,-7.3748,-7.3833,-7.3858,-7.3882,-7.4009,-7.3986,-7.4024,-7.4092,-7.4144,-7.4159,-7.4172,-7.4217,-7.4234,-7.4034,-7.4034,-7.4034,0,-7.3478,-7.3564,-7.3559,-7.3624,-7.3654,-7.3625,-7.3697,-7.3722,-7.3773,-7.3793,-7.3764,-7.387,-7.389,-7.3985,-7.4017,-7.4037,-7.4055,-7.402,-7.4157,-7.417,-7.4182,-7.4225,-7.4243,-7.4038,-7.4038,-7.4037,-7.4037,0,-7.3629,-7.3689,-7.3742,-7.3795,-7.383,-7.3898,-7.3902,-7.3938,-7.3929,-7.3937,-7.4016,-7.404,-7.409,-7.4112,-7.4102,-7.4206,-7.4189,-7.4159,-7.4105,-7.4205,-7.4245,-7.4262,-7.4045,-7.4043,-7.4042,-7.4041,0,0,-7.3781,-7.3832,-7.3851,-7.3875,-7.3916,-7.3961,-7.4026,-7.4078,-7.4109,-7.4145,-7.4199,-7.4272,-7.4244,-7.4271,-7.4264,-7.431,-7.4409,-7.4274,-7.4274,-7.4298,-7.4525,-7.4548,-7.4568,-7.4394,-7.4397,-7.44,-7.4522,0,-7.3901,-7.4019,-7.4017,-7.4125,-7.418,-7.4154,-7.4211,-7.4241,-7.4251,-7.4297,-7.4305,-7.4358,-7.4317,-7.4333,-7.4377,-7.4388,-7.4455,-7.4379,-7.4443,-7.4446,-7.4437,-7.4589,-7.4614,-7.4728,-7.4538,-7.4541,-7.4543,0,-7.4056,-7.41,-7.4215,-7.4249,-7.4272,-7.4323,-7.4371,-7.4416,-7.4449,-7.4452,-7.4483,-7.4469,-7.4534,-7.4479,-7.4568,-7.4517,-7.4543,-7.4552,-7.4556,-7.4562,-7.4501,-7.46,-7.4765,-7.4782,-7.4568,-7.4566,-7.4564,0,-7.4157,-7.4244,-7.4324,-7.4345,-7.4386,-7.4423,-7.4442,-7.4472,-7.4503,-7.4544,-7.4564,-7.461,-7.4636,-7.4671,-7.467,-7.463,-7.476,-7.4705,-7.4764,-7.4764,-7.4793,-7.4791,-7.4965,-7.4809,-7.4809,-7.4808,-7.4808,0,-7.4291,-7.4362,-7.437,-7.442,-7.4499,-7.4495,-7.4572,-7.4586,-7.4613,-7.4664,-7.4643,-7.469,-7.4685,-7.4732,-7.473,-7.4805,-7.4816,-7.4819,-7.4818,-7.4822,-7.4822,-7.4839,-7.4831,-7.4813,-7.4812,-7.4811,-7.481,0,-7.4417,-7.4425,-7.4511,-7.4544,-7.4553,-7.461,-7.4636,-7.4682,-7.469,-7.4754,-7.4769,-7.478,-7.4834,-7.4836,-7.4898,-7.4897,-7.4987,-7.4977,-7.4977,-7.4975,-7.5035,-7.5029,-7.5227,-7.5252,-7.5079,-7.508,-7.5082,0,-7.4503,-7.4557,-7.4596,-7.463,-7.4651,-7.4705,-7.4738,-7.4735,-7.4769,-7.4812,-7.4853,-7.4905,-7.4948,-7.5036,-7.5048,-7.5095,-7.5086,-7.5152,-7.5092,-7.5095,-7.5087,-7.5085,-7.509,-7.5163,-7.5165,-7.5167,-7.5168,0,-7.4654,-7.4656,-7.4705,-7.4756,-7.4796,-7.4835,-7.4871,-7.4899,-7.49,-7.494,-7.4996,-7.503,-7.5094,-7.5146,-7.5192,-7.5208,-7.5189,-7.5187,-7.5203,-7.5207,-7.5206,-7.5208,-7.5009,-7.5182,-7.5181,-7.518,-7.5179,-7.5178,-7.4763,-7.481,-7.4846,-7.4901,-7.4929,-7.4963,-7.5009,-7.5023,-7.5071,-7.5125,-7.5119,-7.5182,-7.5213,-7.5273,-7.5294,-7.5342,-7.5319,-7.5342,-7.5348,-7.5354,-7.5361,-7.5198,-7.535,-7.5349,-7.5349,-7.5348,-7.5348,0,-7.4913,-7.4935,-7.4986,-7.5039,-7.5082,-7.5062,-7.5101,-7.5138,-7.5194,-7.5226,-7.5269,-7.5334,-7.5385,-7.5402,-7.5451,-7.5486,-7.5478,-7.5499,-7.5496,-7.55,-7.5378,-7.536,-7.5504,-7.5504,-7.5504,-7.5504,-7.5504,-7.5504,-7.4997,-7.5077,-7.5083,-7.5176,-7.5196,-7.526,-7.5284,-7.5316,-7.5341,-7.5416,-7.5459,-7.547,-7.5496,-7.5546,-7.5592,-7.5595,-7.5614,-7.5639,-7.5639,-7.5525,-7.5509,-7.5494,-7.5477,-7.5643,-7.5643,-7.5757,-7.5758,-7.5759]}]]